User: anonymous   Login
Location: Altenst�hlen
(53.5567°N, 8.9425°E)
Time: 05:21:25
(UTC+00:00)
Language:

STARLINK-50 - Orbit

View from above orbital plane
View from above orbital plane
View from above satellite
View from above satellite

Ground track
Ground track

The orbit data is extracted from the following two-line orbital elements,

1 44285U 19029BC  19339.50001157  .00031698  00000-0  18280-2 0  9996
2 44285  53.0022  14.4921 0001447 132.2756  56.5362 15.12118691 30656
Epoch (UTC): 05 December 2019 12:00:01
Eccentricity: 0.0001447
inclination: 53.0022°
perigee height: 529 km
apogee height: 531 km
right ascension of ascending node: 14.4921°
argument of perigee: 132.2756°
revolutions per day: 15.12118691
mean anomaly at epoch: 56.5362°
orbit number at epoch: 3065

The dashed part of the orbit path shows where the satellite is in the earth's shadow,  

DLR